CAPE
0 0 0 2 39 30 9 0 0 0 0 0 0 0 68 304 140 24 0 0 0 0 0 0 0 2 813 1216 1436 1191 1000 871 695 137 0 146 327 307 45 32 73 38 105
0 0 0 0 12 8 7 0 0 0 0 0 0 0 0 0 50 48 39 0 1 4 0 0 0 127 415 908 1224 947 716 328 146 4 71 27 1 0 0 0 0 0 2
0 0 0 0 0 0 7 0 0 0 0 0 0 0 0 0 3 9 35 32 0 0 0 0 0 44 537 731 1074 599 220 72 8 0 0 0 0 0 0 0 0 0 46
0 0 0 0 0 0 0 0 0 0 0 0 0 0 0 9 28 19 0 0 0 60 39 123 142 285 388 207 658 309 109 17 0 0 0 0 0 0 0 0 0 0 0
0 0 0 0 0 0 0 0 0 0 0 0 0 0 0 8 69 0 0 16 116 102 188 330 417 358 277 123 164 144 40 0 0 0 0 0 0 0 0 0 0 0 0
0 0 0 0 0 0 0 0 0 0 1 1 0 0 0 0 0 0 0 0 4 228 228 345 283 231 166 148 128 121 18 0 0 0 0 0 0 0 0 0 0 0 0
0 0 0 0 0 0 0 0 0 1 16 11 0 0 0 0 1 0 0 0 0 56 339 232 220 140 123 123 109 42 0 0 0 0 0 0 0 0 0 0 0 0 0
0 0 0 0 0 0 0 0 0 0 5 23 20 3 0 0 4 0 0 0 2 13 205 292 303 223 102 30 1 0 0 0 0 0 0 0 0 0 0 0 0 0 0
0 0 0 0 0 0 0 0 0 0 0 0 4 20 3 0 0 1 0 0 0 0 40 113 60 171 175 91 30 0 0 0 0 0 0 0 0 0 0 0 0 0 0
0 0 0 0 0 0 0 0 0 0 0 0 0 4 14 3 0 0 0 0 0 0 7 50 14 0 26 0 151 240 213 129 39 6 0 0 0 0 0 0 0 0 0
0 0 0 0 0 0 0 0 0 0 0 0 0 0 1 8 0 4 2 11 5 7 3 3 1 0 0 0 0 199 224 75 73 18 0 0 0 0 0 0 0 0 0
0 0 0 0 2 3 2 0 0 0 0 0 0 0 0 0 3 0 0 0 0 8 27 37 26 0 0 0 2 3 312 177 119 33 0 0 0 0 0 0 0 0 0
0 0 2 3 3 14 0 0 2 0 1 8 3 0 0 0 0 3 0 0 0 0 0 20 22 8 0 0 0 15 12 130 146 51 0 0 0 0 0 0 0 0 0
0 0 0 6 1 11 7 6 7 12 7 3 2 5 2 0 0 0 8 5 0 0 0 0 0 18 42 11 0 0 0 0 70 8 0 0 0 0 0 0 0 0 0
0 0 0 0 0 1 3 0 1 1 2 4 2 0 0 0 1 1 7 3 0 0 0 0 0 0 4 2 0 0 0 0 0 0 0 0 0 0 0 0 0 0 0
0 2 1 2 0 0 2 1 1 2 2 0 0 1 5 1 1 1 0 0 0 0 0 0 0 0 0 0 1 0 0 0 0 0 0 0 0 0 0 0 0 0 0
1 1 1 3 3 3 3 5 4 2 0 0 0 0 0 0 0 0 0 0 0 0 0 0 0 0 0 0 0 0 0 0 0 0 0 0 0 0 0 0 0 0 0
1 1 0 2 3 3 2 2 3 3 3 3 3 2 0 0 0 0 0 0 0 0 0 0 0 0 0 0 0 0 0 0 0 0 0 0 0 0 0 0 0 0 0
3 3 3 3 3 3 3 2 1 1 1 3 3 2 2 0 0 0 0 0 0 0 0 0 0 0 0 0 0 0 0 1 0 0 0 2 0 0 0 0 0 0 8
4 4 5 5 5 4 3 3 3 2 2 1 1 0 2 3 3 2 1 1 0 0 0 0 0 0 0 3 9 1 5 3 5 4 1 2 0 0 0 0 0 6 5
5 4 3 4 5 5 5 5 3 3 3 3 3 2 2 2 3 3 2 1 0 0 0 0 0 0 0 0 16 9 0 0 0 0 0 0 0 0 0 0 7 22 10
1 2 2 2 2 3 2 3 4 4 4 3 3 2 0 2 3 3 3 2 1 0 0 0 0 0 0 2 3 0 1 2 6 12 3 0 0 0 0 0 4 7 22
1 1 2 2 2 2 2 3 3 2 1 0 2 3 0 1 2 2 2 5 2 1 0 0 0 0 0 11 17 0 0 0 0 0 0 0 0 2 3 34 23 20 25
4 3 3 3 3 4 4 5 4 2 1 1 1 2 1 1 2 1 2 0 1 2 0 0 0 0 1 2 5 15 7 0 0 0 0 0 0 0 0 3 35 39 10
5 4 5 5 2 5 4 6 5 4 3 1 2 1 1 1 1 1 0 0 0 2 1 0 0 0 0 0 0 0 0 0 0 1 0 0 0 4 13 32 13 0 0
5 5 5 4 4 5 5 6 6 6 4 3 2 0 0 1 0 0 0 1 1 0 0 0 0 0 0 0 0 0 0 1 1 0 0 0 14 12 22 48 5 1 1
CIN
-0 -0 -0 -21 -52 -61 -73 -0 -0 -0 -0 -0 -0 -0 -87 -28 -44 -60 -0 -0 -0 -0 -0 -0 -0 -0 -4 -18 -44 -44 -25 -27 -9 -119 -0 -91 -55 -47 -95 -21 -12 -23 -47
-0 -0 -0 -0 -47 -46 -61 -0 -0 -0 -0 -0 -0 -0 -0 -5 -62 -68 -87 -0 -9 -63 -0 -0 -0 -0 -8 -23 -54 -94 -81 -98 -123 -133 -119 -137 -12 -0 -0 -0 -0 -0 -31
-0 -0 -0 -0 -0 -0 -34 -3 -0 -0 -0 -0 -0 -0 -0 -6 -67 -92 -53 -74 -0 -0 -0 -0 -0 -110 -11 -19 -46 -127 -219 -244 -248 -0 -0 -0 -0 -0 -0 -0 -0 -0 -56
-0 -0 -0 -0 -0 -0 -0 -0 -0 -0 -0 -0 -0 -0 -0 -136 -113 -87 -0 -0 -0 -114 -63 -112 -94 -37 -28 -77 -44 -123 -215 -251 -0 -0 -0 -0 -0 -0 -0 -0 -0 -0 -0
-0 -0 -0 -0 -0 -0 -0 -0 -0 -0 -0 -0 -0 -0 -0 -79 -77 -0 -0 -75 -56 -69 -42 -21 -39 -42 -54 -111 -151 -188 -192 -0 -0 -0 -0 -0 -0 -0 -0 -0 -0 -0 -0
-0 -0 -0 -0 -0 -0 -0 -0 -0 -0 -15 -31 -0 -0 -0 -0 -0 -0 -0 -0 -78 -22 -41 -53 -52 -58 -71 -95 -124 -123 -194 -0 -0 -0 -0 -0 -0 -0 -0 -0 -0 -0 -0
-0 -0 -0 -0 -0 -0 -0 -0 -0 -7 -18 -22 -8 -0 -0 -0 -70 -0 -0 -0 -0 -117 -14 -20 -51 -86 -96 -117 -110 -161 -0 -0 -0 -0 -0 -0 -0 -0 -0 -0 -0 -0 -0
-0 -0 -0 -0 -0 -0 -0 -0 -0 -0 -52 -47 -23 -29 -0 -0 -221 -0 -0 -4 -31 -116 -74 -51 -20 -32 -50 -70 -87 -0 -0 -0 -0 -0 -0 -0 -0 -0 -0 -0 -0 -0 -0
-0 -0 -0 -0 -0 -0 -0 -0 -0 -0 -0 -16 -51 -19 -29 -0 -0 -6 -1 -0 -0 -0 -67 -46 -101 -76 -31 -41 -52 -0 -0 -0 -0 -0 -0 -0 -0 -0 -0 -0 -0 -0 -0
-0 -0 -0 -0 -0 -0 -0 -0 -0 -0 -0 -0 -0 -36 -14 -18 -0 -0 -0 -0 -0 -5 -112 -73 -97 -0 -129 -0 -33 -46 -44 -72 -98 -120 -0 -0 -0 -0 -0 -0 -0 -0 -0
-0 -0 -0 -0 -0 -0 -0 -0 -0 -0 -0 -0 -0 -0 -27 -25 -0 -12 -10 -39 -35 -42 -75 -58 -24 -0 -0 -0 -0 -36 -39 -85 -81 -130 -0 -0 -0 -0 -0 -0 -0 -0 -0
-0 -0 -0 -0 -1 -1 -3 -0 -0 -0 -0 -0 -0 -0 -0 -0 -38 -0 -0 -0 -0 -10 -35 -57 -71 -0 -0 -0 -91 -24 -40 -40 -45 -92 -0 -0 -0 -0 -0 -0 -0 -0 -0
-0 -0 -1 -1 -1 -1 -0 -0 -5 -4 -7 -3 -1 -0 -0 -0 -0 -27 -0 -0 -0 -0 -0 -41 -22 -110 -0 -0 -0 -70 -7 -55 -52 -97 -0 -0 -0 -0 -0 -0 -0 -0 -0
-0 -0 -0 -0 -1 -0 -2 -1 -1 -0 -1 -1 -1 -1 -1 -0 -0 -0 -18 -13 -1 -0 -0 -0 -0 -43 -89 -56 -0 -0 -0 -0 -90 -125 -0 -0 -0 -0 -0 -0 -0 -0 -0
-0 -1 -0 -0 -0 -0 -0 -2 -0 -1 -1 -0 -1 -1 -0 -0 -1 -2 -25 -15 -0 -0 -0 -0 -0 -0 -39 -17 -0 -0 -0 -0 -0 -0 -0 -0 -0 -0 -0 -0 -0 -0 -0
-0 -0 -0 -0 -1 -1 -0 -0 -1 -4 -3 -0 -0 -1 -1 -3 -7 -5 -35 -0 -0 -0 -0 -0 -0 -0 -0 -0 -8 -0 -0 -0 -0 -0 -0 -0 -0 -0 -0 -0 -0 -0 -0
-0 -0 -0 -0 -0 -0 -0 -0 -0 -0 -0 -0 -2 -0 -0 -0 -0 -0 -0 -0 -0 -0 -0 -0 -0 -0 -0 -0 -0 -0 -0 -0 -0 -0 -0 -0 -0 -0 -0 -0 -0 -0 -0
-0 -0 -0 -0 -0 -0 -0 -0 -0 -0 -0 -0 -1 -3 -5 -0 -0 -0 -0 -0 -0 -0 -0 -0 -0 -0 -0 -0 -0 -0 -0 -0 -0 -0 -0 -0 -0 -0 -0 -0 -0 -0 -0
-0 -0 -0 -0 -0 -0 -0 -0 -0 -0 -0 -0 -0 -0 -0 -1 -1 -0 -0 -0 -0 -0 -0 -0 -0 -0 -0 -0 -0 -0 -0 -11 -0 -0 -0 -12 -0 -0 -0 -0 -0 -0 -208
-0 -0 -0 -0 -0 -0 -0 -0 -0 -0 -0 -0 -0 -0 -0 -0 -0 -0 -0 -0 -0 -0 -0 -0 -0 -0 -0 -13 -12 -3 -21 -15 -19 -18 -14 -12 -0 -0 -0 -0 -0 -187 -194
-0 -0 -0 -0 -0 -0 -0 -0 -0 -0 -0 -0 -0 -0 -0 -0 -0 -0 -0 -0 -0 -0 -0 -0 -0 -0 -0 -16 -30 -24 -1 -1 -0 -0 -0 -0 -0 -0 -0 -0 -12 -167 -170
-0 -0 -0 -0 -0 -0 -0 -0 -0 -0 -0 -0 -0 -0 -0 -0 -0 -0 -0 -0 -0 -0 -0 -0 -0 -0 -0 -74 -65 -10 -32 -15 -22 -20 -19 -0 -0 -0 -0 -0 -217 -165 -84
-0 -0 -0 -0 -0 -0 -0 -0 -0 -0 -0 -0 -0 -0 -0 -0 -0 -0 -0 -1 -1 -1 -0 -0 -0 -0 -0 -60 -44 -6 -2 -0 -0 -3 -0 -0 -0 -4 -10 -161 -117 -102 -40
-0 -0 -0 -0 -0 -0 -0 -0 -0 -0 -0 -0 -0 -0 -0 -0 -0 -0 -0 -1 -2 -1 -1 -0 -0 -0 -73 -59 -49 -30 -31 -6 -0 -0 -0 -0 -0 -0 -3 -198 -66 -35 -62
-0 -0 -0 -0 -0 -0 -0 -0 -0 -0 -0 -0 -0 -0 -0 -0 -0 -0 -0 -0 -3 -3 -4 -0 -0 -0 -0 -0 -0 -0 -0 -0 -0 -20 -0 -1 -0 -7 -151 -75 -61 -0 -0
-0 -0 -0 -0 -0 -0 -0 -0 -0 -0 -0 -0 -0 -0 -0 -0 -0 -0 -0 -1 -1 -3 -2 -0 -0 -0 -0 -0 -0 -0 -0 -31 -42 -0 -0 -0 -7 -165 -82 -30 -19 -33 -0
Wind_Speed
27 28 31 33 34 34 34 35 40 41 42 43 44 45 46 46 44 40 38 35 34 36 36 37 41 50 38 31 21 21 23 24 28 31 30 29 24 23 29 32 32 30 32
30 31 32 32 32 34 36 37 39 42 41 42 41 42 44 45 44 41 40 37 35 35 33 31 24 42 37 26 22 22 21 25 24 26 26 26 25 25 28 34 34 32 30
31 31 31 33 35 35 36 37 39 41 42 43 42 42 42 42 44 41 39 36 33 30 27 29 21 17 20 16 25 15 16 18 18 21 25 24 27 27 26 28 30 29 28
32 33 34 35 36 37 39 40 40 41 42 42 43 42 42 40 39 36 39 37 34 27 22 18 17 17 17 19 13 12 14 17 20 21 24 25 26 26 27 30 32 31 32
32 33 33 33 34 37 39 41 43 43 43 43 42 41 40 38 34 36 31 35 23 14 13 13 13 12 11 9 10 14 14 18 15 19 21 22 22 24 26 27 30 33 34
31 34 35 37 39 42 44 44 44 43 43 40 39 38 38 38 34 35 37 34 36 23 19 15 9 8 8 7 7 11 13 14 15 14 16 20 19 19 23 27 30 33 32
34 36 38 40 43 43 45 46 46 47 46 43 40 39 36 35 38 36 36 32 35 28 14 10 9 9 7 8 6 6 8 12 14 13 15 18 19 20 23 28 31 33 34
35 38 39 42 46 47 49 51 53 50 47 48 44 38 36 34 32 34 36 37 40 35 24 16 9 8 7 6 5 7 6 9 11 13 16 20 21 23 24 28 32 34 34
38 36 37 38 41 44 47 50 50 52 50 47 45 41 37 39 35 31 28 34 37 38 29 23 21 20 10 11 10 10 20 21 13 10 15 20 23 24 25 29 34 34 35
34 34 34 33 35 39 42 47 48 50 51 49 46 42 39 39 34 32 22 34 43 39 30 30 30 29 33 28 20 16 19 24 14 15 19 23 22 24 27 30 33 34 35
39 36 34 30 32 36 44 43 45 48 49 51 50 47 43 39 37 33 25 32 40 40 37 34 26 29 48 45 41 29 11 18 13 18 23 24 25 29 32 32 34 34 35
37 34 30 28 27 27 31 40 42 43 50 49 47 45 45 43 40 38 37 36 36 36 37 38 36 17 13 50 45 43 38 22 19 20 23 27 31 33 33 34 35 35 28
37 32 28 25 22 19 20 31 39 39 39 44 43 45 46 43 41 39 41 42 41 38 39 39 41 23 25 37 43 44 42 36 32 18 22 36 34 34 34 35 36 37 36
27 25 22 20 18 18 23 29 30 32 32 37 38 39 35 41 43 43 41 40 42 40 41 41 38 40 37 32 30 35 39 39 37 29 28 36 33 33 34 36 37 36 35
20 20 18 18 18 14 14 14 16 20 24 28 36 38 39 43 43 42 41 40 33 32 35 36 36 35 37 37 35 36 34 33 29 13 13 33 36 35 35 35 34 35 34
15 17 22 18 14 11 12 13 12 22 19 18 18 26 37 38 36 29 28 31 33 31 32 32 35 35 42 43 42 38 35 35 28 21 13 10 37 36 35 34 34 35 34
13 15 16 21 19 9 9 11 15 11 13 25 23 24 30 46 41 35 34 36 38 38 38 37 36 35 37 39 39 38 36 34 30 25 21 25 35 37 36 32 35 34 33
9 10 11 10 10 9 9 10 11 12 14 20 13 29 17 23 46 46 43 42 46 43 42 42 40 37 37 38 35 34 33 31 30 27 24 21 18 34 34 30 28 33 33
6 6 9 7 6 5 6 6 7 9 10 11 16 15 26 31 48 51 50 48 46 46 44 43 39 38 37 38 36 34 35 33 31 30 27 22 29 32 34 29 33 30 32
6 5 6 7 7 9 9 7 5 3 5 6 9 18 18 21 36 39 40 47 43 45 42 43 41 39 38 36 34 35 31 33 32 32 30 27 31 31 33 33 29 31 31
8 8 8 9 11 9 9 8 3 1 1 2 12 6 4 6 26 28 35 35 46 39 44 43 43 41 38 36 27 29 33 33 27 26 25 28 30 33 33 32 30 31 31
10 11 13 14 13 10 12 10 5 4 4 4 9 12 18 24 33 34 33 30 32 38 41 42 43 42 40 38 36 29 24 25 27 25 26 28 31 32 33 31 31 23 29
15 14 18 22 21 21 21 20 14 13 10 8 11 16 19 22 27 30 30 27 32 41 38 37 41 41 37 31 30 30 31 31 31 31 30 30 32 33 31 31 22 28 30
16 18 18 23 24 25 26 23 17 15 15 18 21 22 23 24 25 28 28 26 25 34 40 38 41 44 37 34 32 32 33 33 35 38 38 36 34 33 32 27 21 12 27
16 21 22 24 28 26 26 25 22 17 19 22 26 26 24 24 24 25 25 27 31 34 36 36 37 37 38 42 42 38 34 32 32 31 31 33 34 32 28 26 26 24 21
16 22 25 23 26 26 25 25 25 24 21 22 23 22 22 22 22 23 25 27 30 33 33 35 35 35 37 40 39 37 36 36 33 33 32 31 30 27 19 19 26 22 7
Wind_Direction
318 316 314 312 312 310 308 308 307 305 302 299 299 299 298 294 291 287 284 283 278 280 288 295 300 277 254 258 272 286 289 294 297 302 307 306 316 319 311 304 303 304 302
314 314 314 315 314 311 308 307 307 304 305 305 303 301 300 300 294 289 285 282 278 278 278 287 308 241 246 264 275 285 292 295 301 304 306 310 313 316 314 305 300 302 304
316 315 314 313 312 311 310 309 306 303 302 303 305 306 303 300 298 293 285 283 279 275 274 280 264 250 266 278 282 297 294 301 314 308 303 310 311 313 316 311 308 311 312
310 310 309 309 309 310 309 306 304 302 302 303 301 303 306 304 303 298 292 285 282 270 264 259 256 258 255 260 264 279 291 299 305 305 304 311 311 311 312 306 302 307 304
310 311 311 311 309 307 307 306 301 299 299 300 304 302 304 306 301 298 300 287 287 282 271 257 248 245 242 241 270 281 290 295 303 301 305 308 311 312 310 314 307 304 305
309 309 309 308 307 305 305 303 301 298 297 300 301 304 302 300 303 294 286 287 293 275 273 271 257 255 262 267 275 285 284 283 292 307 312 306 317 321 322 315 312 305 310
308 307 306 306 305 304 304 303 300 297 294 293 297 300 303 300 294 293 283 292 265 287 270 251 252 263 268 264 265 268 280 286 289 304 311 309 317 326 321 315 310 299 301
306 305 304 302 301 300 297 297 294 293 294 289 290 294 297 299 294 290 276 270 262 272 272 263 242 245 236 248 233 252 259 281 295 305 305 307 314 321 318 309 305 297 302
306 305 305 304 302 301 298 298 295 288 287 288 288 288 290 290 292 288 287 277 263 251 270 272 273 271 262 266 267 271 274 279 296 302 306 307 311 314 315 307 297 298 299
311 309 308 306 303 301 300 297 292 290 283 283 282 282 284 283 288 286 288 272 255 263 272 269 263 266 265 271 265 271 275 277 294 302 301 300 312 309 309 308 298 290 298
317 317 314 308 305 304 299 298 291 283 285 278 274 274 276 277 281 282 288 267 261 265 268 267 273 266 261 245 251 263 229 286 293 296 293 297 302 299 299 301 294 301 303
315 310 302 297 293 293 292 294 289 288 281 277 275 273 270 271 272 274 271 268 270 271 267 265 264 266 229 245 243 227 226 281 289 292 290 290 287 286 291 293 290 297 324
314 312 311 306 295 293 296 298 294 290 287 281 277 272 268 268 269 269 268 266 266 269 261 260 252 258 203 209 220 230 246 255 263 287 290 263 270 277 285 292 293 293 294
315 314 313 312 305 306 305 301 297 294 291 286 282 277 279 271 266 264 265 268 265 265 262 259 258 253 257 264 263 257 252 253 227 215 217 247 273 280 283 288 289 296 293
312 315 312 312 311 290 288 294 290 291 289 290 284 280 276 269 267 265 260 260 266 269 265 262 261 259 255 255 256 257 262 265 274 278 214 231 255 262 268 278 280 297 293
294 319 328 322 306 288 267 280 250 235 243 252 268 280 276 273 271 267 260 257 258 265 264 263 259 257 250 248 250 260 263 263 274 279 276 265 251 259 262 270 284 291 292
320 324 332 334 332 296 272 253 249 278 267 232 228 227 226 256 262 264 259 257 259 259 258 258 257 255 251 249 253 256 262 263 270 275 279 279 268 269 269 289 287 288 281
312 318 323 324 325 310 289 277 280 277 256 235 267 283 249 230 253 253 256 258 254 252 252 251 251 254 253 249 254 256 260 262 265 270 274 280 288 277 281 299 308 277 290
318 335 2 345 339 335 329 307 283 273 266 265 299 286 281 248 246 244 246 251 250 248 247 247 250 252 254 251 253 255 255 259 262 263 266 277 279 275 279 296 289 294 277
5 11 17 18 18 17 15 3 352 311 274 264 303 302 294 279 258 253 250 240 248 245 245 243 244 247 248 250 251 254 259 256 257 259 264 273 276 281 275 283 293 289 266
37 45 42 32 32 32 30 29 37 104 13 213 208 190 189 265 263 256 246 247 210 242 238 238 238 241 244 245 253 254 252 252 255 260 267 269 275 275 277 288 290 285 254
55 56 51 46 40 42 40 43 76 91 71 158 184 168 176 189 211 231 240 246 244 234 232 233 233 233 237 242 242 246 250 250 252 261 267 274 274 273 273 278 274 296 234
59 63 59 53 55 57 56 58 75 76 77 106 151 147 150 160 175 199 218 234 223 206 224 227 227 230 233 240 240 240 242 247 250 254 262 265 269 265 267 266 292 221 223
68 69 66 60 57 59 58 63 76 82 84 86 101 126 147 151 159 177 187 219 231 215 197 218 218 219 228 233 235 236 237 244 249 250 252 259 257 256 260 277 288 163 246
69 71 69 65 59 64 67 70 73 84 87 89 89 96 113 135 151 159 163 177 193 195 193 199 207 214 219 218 219 225 233 240 245 247 250 248 247 256 267 261 194 228 223
69 72 67 68 63 72 76 76 76 81 88 90 94 103 118 132 145 161 169 169 173 179 185 188 193 199 206 211 216 224 231 233 237 240 241 247 252 261 274 260 225 224 235